Вернуться в каталог

WENWU 01

АктивенНаукаSSO
NORAD 69539·PAYLOAD·🇨🇳 China
Это название спутника еще не подтверждено официальными источниками.

Запущен Jun 15, 2026 с Jiuquan Satellite Launch Center

Loading…

Ближайшие Пролёты (ближайшие 24 часа)

TLE

СвежийSource: Space-Track

Эпоха: Sep 14, 2026, 13:39 UTC

1 69539U 26134B   26257.56887376  .00003271  00000-0  21213-3 0  9995
2 69539  97.6904 327.9361 0015183 331.0638  28.9747 15.08723981 13782

Отслеживайте WENWU 01 в реальном времени с AllMySat

Download on the App Store